TimeCST,TemperatureF,Dew PointF,Humidity,Sea Level PressureIn,VisibilityMPH,Wind Direction,Wind SpeedMPH,Gust SpeedMPH,PrecipitationIn,Events,Conditions,WindDirDegrees,DateUTC
12:56 AM,36.0,27.0,70,30.13,10.0,SE,8.1,-,N/A,,Mostly Cloudy,140,2012-12-06 06:56:00
1:56 AM,36.0,27.0,70,30.12,10.0,ESE,6.9,-,N/A,,Overcast,120,2012-12-06 07:56:00
2:56 AM,36.0,28.0,73,30.08,10.0,ESE,10.4,-,N/A,,Overcast,120,2012-12-06 08:56:00
3:56 AM,36.0,28.0,73,30.05,10.0,ESE,8.1,-,N/A,,Scattered Clouds,110,2012-12-06 09:56:00
4:56 AM,37.0,28.9,73,30.04,10.0,East,6.9,-,N/A,,Overcast,100,2012-12-06 10:56:00
5:56 AM,39.9,30.0,68,30.01,10.0,SSE,5.8,-,N/A,,Overcast,150,2012-12-06 11:56:00
6:56 AM,39.0,30.0,70,30.01,10.0,South,4.6,-,N/A,,Overcast,190,2012-12-06 12:56:00
7:56 AM,39.9,30.0,68,30.00,10.0,South,9.2,-,N/A,,Overcast,180,2012-12-06 13:56:00
8:56 AM,41.0,30.9,67,29.98,10.0,Variable,6.9,-,N/A,,Mostly Cloudy,0,2012-12-06 14:56:00
9:56 AM,42.1,30.9,65,29.96,10.0,Variable,3.5,-,N/A,,Overcast,0,2012-12-06 15:56:00
10:56 AM,44.1,32.0,63,29.94,10.0,Calm,Calm,-,N/A,,Overcast,0,2012-12-06 16:56:00
11:56 AM,45.0,33.1,63,29.90,10.0,SSW,5.8,-,N/A,,Overcast,210,2012-12-06 17:56:00
12:56 PM,45.0,33.1,63,29.87,10.0,SSW,8.1,-,N/A,,Overcast,210,2012-12-06 18:56:00
1:56 PM,45.0,34.0,65,29.86,9.0,West,4.6,-,N/A,,Overcast,260,2012-12-06 19:56:00
2:56 PM,46.0,35.1,66,29.87,9.0,WSW,3.5,-,N/A,,Overcast,240,2012-12-06 20:56:00
3:56 PM,46.0,35.1,66,29.86,10.0,WSW,4.6,-,N/A,,Scattered Clouds,240,2012-12-06 21:56:00
4:56 PM,46.0,35.1,66,29.86,10.0,SW,3.5,-,N/A,,Clear,230,2012-12-06 22:56:00
5:56 PM,44.1,35.1,71,29.87,10.0,West,4.6,-,N/A,,Clear,260,2012-12-06 23:56:00
6:56 PM,43.0,35.1,74,29.89,10.0,Calm,Calm,-,N/A,,Partly Cloudy,0,2012-12-07 00:56:00
7:56 PM,43.0,35.1,74,29.90,10.0,West,4.6,-,N/A,,Partly Cloudy,260,2012-12-07 01:56:00
8:56 PM,42.1,34.0,73,29.91,10.0,NW,5.8,-,N/A,,Clear,310,2012-12-07 02:56:00
9:56 PM,42.1,33.1,70,29.92,10.0,WNW,5.8,-,N/A,,Clear,300,2012-12-07 03:56:00
10:56 PM,35.1,30.0,82,29.93,10.0,Calm,Calm,-,N/A,,Clear,0,2012-12-07 04:56:00
11:56 PM,32.0,28.0,85,29.94,9.0,Calm,Calm,-,N/A,,Partly Cloudy,0,2012-12-07 05:56:00